Weather in Morozovo

Russia / Belgorod Oblast     51°10′00″N   37°12′48″E
temp.,
°C
wind,
m/s
gust,
m/s
humid.,
%
clouds,
%
prec.,
mm/h
press.,
hPa
HPBL,
m
7 may, fri
fri700:00+8nnw3794100 3.8 1011508
03:00+7nnw3690100 7.1 1012385
06:00+7wnw35945 0.0 1013183
09:00+11nw45725 0.0 1014770
12:00+14nw34468 0.0 10141972
15:00+15wsw2342100 0.0 10151881
18:00+14s345767 0.0 1014515
21:00+10sse4972100 0.0 1014162
8 may, sat
sat800:00+9sse61469100 0.0 1014361
03:00+10sse71671100 0.3 1012523
06:00+9sse81680100 0.5 1011566
09:00+11sse71481100 0.9 1009623
12:00+10s81690100 2.7 10071010
15:00+11ssw81495100 7.8 1006884
18:00+11wsw51091100 0.1 1007671
21:00+7w71490100 0.2 1009572
9 may, sun
sun900:00+5wnw81293100 0.1 10121033
03:00+5nw71182100 0.1 1013911
06:00+5nw6988100 0.0 10151009
09:00+6nw797397 0.1 10171013
12:00+10nnw81054100 0.1 10181834
15:00+10nw896077 0.1 10201686
18:00+9n59637 0.1 10221629
21:00+5nw35790 0.1 102583
10 may, mon
mon1000:00+4nnw49830 0.0 1026163
03:00+3nnw410835 0.0 1027198
06:00+3nnw4127915 0.0 1029280
09:00+10n711594 0.0 10281278
12:00+12nne911475 0.0 10271639
15:00+13nne9124799 0.0 10261813
18:00+12nne81460100 0.0 10261447
21:00+10nne81561100 0.0 1026953
11 may, tue
tue1100:00+10ne81559100 0.0 1025709
03:00+9nne7156445 0.0 1025576
06:00+8nne8166999 0.0 1024486
09:00+12ne9156499 0.0 1024739
12:00+13ne91476100 0.0 1024993
15:00+14e71072100 0.1 10241229
18:00+13ene587837 0.1 1025870
21:00+11ene3993100 0.3 1024274